This is the latest recevied weather packets stored in our database for station/object SV9TNF-52. If no packets are shown the sender has not sent any weather packets the latest 10 day(s).
| Time | Temp. | Humidity | Pressure | Rain* | Wind** | Luminosity | Snow |
|---|---|---|---|---|---|---|---|
| 1788296607 | 23.33° C | 73% | 1020 hPa | 0 mm | 6.71 m/s, 180° | - | - |
| 1788296307 | 23.33° C | 73% | 1020 hPa | 0 mm | 4.92 m/s, 195° | - | - |
| 1788296006 | 23.33° C | 72% | 1020 hPa | 0 mm | 8.05 m/s, 179° | - | - |
| 1788295706 | 23.33° C | 72% | 1020 hPa | 0 mm | 5.81 m/s, 207° | - | - |
| 1788295406 | 23.33° C | 72% | 1020 hPa | 0 mm | 4.92 m/s, 210° | - | - |
| 1788295106 | 23.33° C | 72% | 1020 hPa | 0 mm | 6.26 m/s, 124° | - | - |
| 1788294806 | 23.33° C | 72% | 1020 hPa | 0 mm | 8.05 m/s, 201° | - | - |
| 1788294506 | 23.33° C | 71% | 1020 hPa | 0 mm | 7.15 m/s, 248° | - | - |
| 1788294206 | 23.89° C | 71% | 1020 hPa | 0 mm | 8.05 m/s, 236° | - | - |
| 1788293906 | 23.33° C | 71% | 1020 hPa | 0 mm | 8.05 m/s, 194° | - | - |
| 1788293606 | 23.33° C | 71% | 1020 hPa | 0 mm | 6.71 m/s, 124° | - | - |
| 1788293306 | 23.33° C | 71% | 1020 hPa | 0 mm | 6.71 m/s, 241° | - | - |
| 1788293005 | 23.33° C | 71% | 1020 hPa | 0 mm | 7.6 m/s, 230° | - | - |
| 1788292705 | 23.33° C | 71% | 1020 hPa | 0 mm | 6.71 m/s, 203° | - | - |
| 1788292405 | 23.33° C | 71% | 1020 hPa | 0 mm | 5.81 m/s, 207° | - | - |
| 1788292105 | 23.89° C | 71% | 1020.3 hPa | 0 mm | 5.81 m/s, 181° | - | - |
| 1788291805 | 23.89° C | 71% | 1020.3 hPa | 0 mm | 5.81 m/s, 214° | - | - |
| 1788291505 | 23.33° C | 71% | 1020.3 hPa | 0 mm | 5.36 m/s, 202° | - | - |
| 1788291205 | 23.89° C | 71% | 1020.3 hPa | 0 mm | 4.92 m/s, 190° | - | - |
| 1788290905 | 23.89° C | 70% | 1020.3 hPa | 0 mm | 5.81 m/s, 176° | - | - |
| 1788290605 | 23.89° C | 70% | 1020.3 hPa | 0 mm | 6.26 m/s, 175° | - | - |
| 1788290305 | 23.89° C | 70% | 1020.3 hPa | 0 mm | 6.26 m/s, 226° | - | - |
| 1788290004 | 23.89° C | 70% | 1020.3 hPa | 0 mm | 3.13 m/s, 251° | - | - |
| 1788289704 | 23.89° C | 70% | 1020.3 hPa | 0 mm | 5.81 m/s, 229° | - | - |
| 1788289404 | 23.89° C | 70% | 1020.3 hPa | 0 mm | 6.26 m/s, 180° | - | - |
* Rain latest hour (hover to see other rain measurements)
** Current wind speed in m/s (hover to see current wind gust speed)